Wind_Speed
41 41 41 40 40 41 42 43 43 43 43 44 44 43 42 42 43 43 43 43 43 42 41 42 42 42 42 43 43 42 42 42 41 41 41 40 40 40 39 39 39 38 38 38
41 42 40 40 41 41 42 43 43 42 43 44 44 44 43 42 42 43 43 42 42 42 42 43 43 43 43 43 43 43 42 42 42 42 42 41 41 41 40 40 39 39 38 38
40 40 39 40 41 41 42 42 42 42 43 44 44 44 42 42 42 42 42 42 42 42 43 43 44 43 43 44 44 44 43 42 42 42 42 42 42 41 40 40 40 39 39 38
38 38 38 39 40 41 41 41 41 42 42 43 44 45 42 42 42 42 42 42 42 42 43 43 43 43 44 44 44 44 44 43 43 43 42 42 42 41 41 41 40 40 39 38
35 36 37 38 37 38 40 39 40 41 42 42 42 45 44 43 43 42 42 43 42 42 43 44 44 44 44 44 44 44 45 44 43 43 42 42 42 42 42 42 41 40 39 38
33 33 34 36 36 37 37 38 38 40 41 42 41 43 44 43 42 42 43 43 42 42 42 43 44 44 44 45 45 44 45 45 44 43 43 42 42 42 42 42 42 41 40 38
31 31 32 32 34 35 35 36 36 37 39 41 39 41 43 42 42 42 42 42 43 43 43 43 43 43 43 43 44 44 45 45 44 44 44 43 43 43 42 42 41 41 40 40
29 29 29 29 30 32 33 33 33 33 35 37 37 39 39 39 40 41 41 42 42 42 42 43 43 43 43 43 44 44 44 45 44 44 44 44 42 42 41 41 41 41 40 40
28 28 27 28 28 29 31 32 32 32 31 33 34 36 37 38 39 40 41 42 42 42 42 42 43 43 42 43 44 44 44 44 44 44 45 44 43 41 41 41 41 41 40 40
28 27 25 26 27 28 29 30 30 31 31 30 31 33 35 36 37 39 41 42 42 42 42 42 42 42 42 43 43 43 43 43 43 44 44 44 44 41 41 42 41 41 41 40
26 26 25 25 25 25 27 29 31 31 31 31 31 32 33 35 36 38 40 41 42 41 42 41 40 41 41 42 42 42 42 42 43 43 43 43 43 42 41 41 42 42 41 40
24 25 25 25 26 24 26 28 30 31 31 31 32 33 32 34 35 36 37 38 39 40 40 40 40 40 41 42 42 41 41 42 43 43 43 43 43 42 41 41 42 42 42 41
22 23 24 24 25 26 26 27 29 30 31 31 31 32 31 32 34 34 35 36 36 37 39 39 39 39 40 41 41 41 41 42 42 42 42 42 43 42 41 42 42 42 43 42
21 21 21 22 23 25 26 27 29 30 30 30 31 31 31 31 32 33 34 34 35 35 36 37 38 38 39 39 40 40 41 41 42 43 42 42 42 42 42 42 42 42 43 42
19 20 21 22 23 25 26 26 26 28 29 31 30 30 30 31 32 33 33 33 33 34 35 36 36 36 37 37 38 39 41 41 42 43 43 43 43 43 42 42 42 42 42 42
19 19 19 20 22 24 24 24 23 25 26 28 29 30 29 31 32 32 32 31 32 33 34 35 35 36 36 37 37 38 39 40 40 42 43 44 43 43 43 43 43 43 42 42
18 19 20 19 20 23 22 20 21 23 24 26 27 27 27 28 29 30 30 30 31 32 33 34 34 35 35 36 37 37 38 38 39 39 41 42 43 43 43 44 43 43 42 40
17 17 19 19 20 21 20 19 19 21 22 23 24 24 26 26 27 28 28 28 28 29 30 31 32 32 33 35 36 37 37 37 37 37 39 40 41 41 42 43 42 42 42 41
16 17 18 18 19 19 18 18 19 22 22 22 22 23 23 24 25 25 26 26 26 27 27 28 30 30 30 31 32 34 35 35 36 36 37 38 39 39 39 40 40 40 40 40
14 15 16 17 17 17 18 18 19 21 21 21 22 22 23 23 25 24 24 24 25 25 26 27 28 28 29 29 31 32 33 33 34 35 36 36 37 37 38 38 38 39 39 40
14 14 15 17 17 18 17 16 17 19 20 20 21 21 21 23 23 24 24 23 23 24 26 27 27 27 27 28 29 29 30 30 31 32 33 34 35 36 36 37 37 37 38 38
14 14 14 15 17 17 16 16 17 18 19 19 20 20 21 21 22 23 24 24 24 24 25 26 27 27 27 27 27 28 29 29 29 30 30 31 33 35 36 36 36 36 36 37
14 14 14 15 15 15 15 16 17 18 18 19 19 19 20 20 21 21 23 24 24 24 25 26 27 27 27 27 27 28 28 29 29 29 30 30 31 32 34 35 36 36 36 36
14 14 14 14 15 16 16 16 17 17 18 19 19 20 20 20 20 20 21 22 23 23 24 24 25 27 27 28 28 28 28 28 28 29 29 29 30 31 32 33 33 34 34 35
14 14 14 14 14 15 16 16 17 17 18 19 19 20 21 21 21 21 21 22 23 23 24 25 25 26 27 29 29 29 29 29 29 29 29 29 29 29 30 30 31 32 33 33
14 14 15 15 14 15 15 16 17 18 18 19 20 20 20 20 20 20 21 22 23 24 24 25 25 26 27 28 28 29 30 30 30 29 28 28 28 28 29 29 30 30 30 31
Wind_Direction
263 260 259 259 259 260 258 257 256 255 254 255 254 251 250 250 250 251 250 248 248 247 247 247 247 248 248 247 247 248 249 250 250 251 251 251 252 253 253 253 252 252 252 254
264 262 260 258 256 256 257 257 256 255 254 254 254 252 251 250 251 251 250 249 248 247 247 248 248 248 248 248 248 248 248 249 250 251 251 252 252 251 251 252 252 252 253 254
265 263 259 257 255 256 256 256 256 255 254 254 254 253 251 250 251 251 250 250 248 247 247 248 248 248 249 249 248 247 247 248 250 251 251 251 250 249 249 251 251 252 253 255
265 261 258 256 255 254 255 255 255 255 254 254 253 254 250 250 251 251 251 251 251 249 248 248 248 249 250 250 249 248 247 248 249 250 251 250 249 248 248 250 251 252 253 254
265 262 258 256 255 254 254 254 254 254 254 255 254 255 252 252 252 251 251 251 251 251 250 249 249 250 250 249 250 249 248 248 249 250 250 249 248 248 248 249 251 252 252 254
266 263 260 258 256 255 254 253 253 253 253 254 254 256 255 253 253 253 252 251 251 250 250 250 250 249 249 248 249 249 249 248 248 249 249 248 248 248 248 249 250 250 251 252
266 263 261 259 257 254 253 252 254 253 254 255 255 256 257 255 253 253 251 251 251 250 249 249 250 249 249 249 248 249 249 248 248 248 248 248 248 248 248 249 249 250 251 251
268 265 263 261 260 258 254 252 252 255 256 256 254 255 256 255 254 253 251 251 251 250 249 249 250 249 249 249 249 248 248 248 248 248 247 246 247 247 248 248 248 250 250 250
269 265 263 261 259 256 254 251 251 253 257 256 253 255 254 254 254 254 253 252 252 251 250 250 250 250 250 249 249 249 248 248 248 246 245 245 247 246 246 247 248 248 249 250
269 265 262 260 257 254 252 251 251 250 253 256 255 255 256 254 253 253 253 253 253 251 250 250 251 250 250 249 249 249 248 247 246 245 245 245 245 245 246 247 248 248 248 249
269 265 261 258 255 254 250 249 250 252 253 254 256 255 255 255 254 253 253 253 253 252 250 249 250 250 249 248 248 248 247 246 245 244 244 244 245 245 248 248 248 248 249 250
270 265 261 259 256 254 252 251 251 252 254 254 256 257 255 255 255 255 252 251 251 250 249 248 248 248 248 246 246 247 246 245 244 243 243 244 244 247 249 248 248 248 249 250
271 266 262 260 256 252 252 251 250 252 254 255 255 258 258 257 255 254 253 251 249 248 246 246 246 248 248 246 247 247 245 244 243 242 243 244 244 246 248 248 248 249 249 251
271 266 261 258 258 258 256 254 251 250 251 253 255 258 258 258 255 253 252 251 249 247 245 245 245 246 246 247 246 245 245 244 244 242 242 244 245 246 247 248 248 248 249 250
269 264 262 260 259 259 258 256 254 251 250 252 254 256 257 257 256 255 254 250 248 246 244 244 243 244 245 244 244 245 246 246 245 244 244 245 246 245 245 246 247 248 249 249
268 265 263 261 260 259 257 256 256 253 252 254 254 255 256 254 255 257 255 250 248 246 245 244 243 244 246 245 246 247 247 246 246 246 246 245 246 246 245 245 246 247 249 250
268 266 263 262 262 263 260 256 255 254 254 256 255 255 255 254 256 258 255 250 249 247 246 244 243 243 244 244 246 248 247 245 246 246 246 246 246 246 245 245 246 247 249 250
269 268 267 265 262 262 261 258 257 257 257 257 257 258 258 257 258 258 253 251 249 247 247 245 243 244 244 244 245 247 247 245 246 246 246 247 247 246 246 245 246 247 249 249
270 268 268 265 265 263 260 259 259 260 263 260 259 261 260 258 257 255 252 250 248 248 247 244 241 243 244 245 245 244 245 247 248 247 247 246 245 245 245 245 245 246 247 249
272 269 268 266 266 266 266 265 265 262 264 262 263 264 261 258 256 253 252 250 249 248 246 245 243 243 244 245 244 244 245 247 248 248 247 246 245 244 244 245 245 246 247 249
278 273 269 267 266 266 268 270 266 264 264 263 263 265 264 260 257 254 252 251 251 248 247 247 246 245 243 243 242 243 246 247 248 248 248 245 244 244 244 245 246 247 248 249
284 280 273 271 268 268 269 268 267 267 266 265 265 265 265 264 261 257 254 253 251 249 248 248 247 246 245 244 243 243 246 246 248 247 247 246 246 245 245 245 246 247 248 250
280 278 276 272 271 271 269 267 265 265 266 266 265 264 264 264 264 260 257 255 253 252 252 250 248 246 246 246 245 246 245 245 246 246 246 246 247 247 248 248 248 249 250 252
280 276 274 272 267 267 268 268 267 266 267 266 267 266 267 265 265 262 259 256 256 257 255 253 252 250 248 247 248 249 247 246 246 246 246 247 248 249 250 249 249 250 251 251
278 275 273 272 271 270 269 270 270 269 270 269 269 270 268 267 264 262 261 261 261 260 258 257 256 254 252 251 249 249 249 248 248 249 249 248 248 249 249 250 251 252 252 253
277 275 272 273 275 276 274 273 273 273 272 271 271 272 270 267 264 262 262 262 260 259 258 258 258 257 255 252 250 251 250 249 249 249 249 248 247 248 249 250 251 252 252 253
Height
5638 5640 5641 5644 5645 5647 5649 5650 5653 5656 5659 5660 5663 5669 5673 5676 5679 5682 5685 5689 5692 5696 5699 5703 5706 5710 5713 5717 5720 5724 5727 5730 5733 5736 5739 5742 5744 5746 5749 5751 5753 5755 5757 5759
5625 5627 5631 5632 5633 5635 5637 5639 5642 5645 5647 5649 5652 5657 5662 5665 5668 5671 5675 5678 5683 5686 5690 5693 5696 5700 5703 5706 5710 5713 5717 5720 5723 5726 5729 5732 5734 5737 5739 5741 5744 5746 5748 5750
5612 5616 5618 5619 5621 5623 5625 5628 5631 5634 5636 5638 5641 5646 5652 5654 5657 5660 5664 5668 5672 5676 5679 5682 5686 5690 5693 5696 5700 5703 5706 5710 5712 5715 5718 5721 5724 5726 5729 5732 5734 5737 5739 5740
5600 5603 5604 5606 5609 5611 5613 5617 5620 5623 5625 5627 5631 5634 5641 5643 5646 5650 5654 5658 5662 5665 5669 5672 5675 5679 5682 5686 5689 5692 5695 5699 5702 5705 5708 5710 5713 5717 5719 5722 5724 5727 5729 5730
5589 5591 5593 5595 5598 5600 5603 5606 5609 5611 5614 5617 5620 5622 5629 5632 5635 5640 5644 5647 5651 5655 5658 5661 5665 5668 5671 5674 5678 5681 5684 5688 5691 5694 5697 5700 5703 5706 5709 5712 5714 5716 5719 5720
5580 5580 5582 5584 5587 5589 5592 5595 5598 5600 5602 5605 5611 5612 5616 5621 5625 5629 5633 5636 5640 5643 5647 5650 5654 5657 5660 5663 5666 5670 5673 5677 5680 5683 5686 5689 5692 5695 5698 5701 5704 5706 5709 5711
5571 5572 5573 5575 5577 5580 5582 5585 5588 5589 5591 5595 5601 5601 5605 5611 5615 5618 5622 5625 5628 5632 5636 5639 5642 5646 5649 5652 5655 5659 5662 5666 5669 5672 5675 5679 5682 5685 5688 5691 5693 5696 5699 5701
5562 5563 5564 5566 5568 5570 5573 5576 5579 5582 5584 5587 5590 5591 5596 5600 5603 5606 5610 5614 5617 5621 5625 5628 5631 5634 5637 5640 5644 5647 5651 5654 5658 5661 5665 5668 5671 5674 5677 5680 5683 5686 5689 5692
5553 5555 5557 5558 5560 5562 5564 5567 5571 5573 5575 5578 5580 5583 5588 5590 5592 5596 5599 5603 5606 5610 5614 5617 5620 5623 5626 5629 5632 5636 5639 5643 5646 5650 5654 5657 5661 5664 5667 5670 5673 5676 5679 5682
5545 5548 5550 5551 5553 5555 5557 5560 5563 5564 5566 5569 5572 5575 5578 5580 5583 5586 5589 5592 5596 5599 5603 5606 5610 5612 5615 5618 5621 5624 5628 5631 5635 5639 5643 5647 5651 5654 5657 5660 5663 5666 5669 5672
5538 5540 5543 5544 5545 5547 5550 5553 5554 5557 5559 5561 5563 5568 5569 5571 5573 5576 5579 5582 5585 5588 5592 5595 5599 5602 5604 5607 5610 5614 5617 5620 5624 5628 5632 5637 5640 5644 5647 5650 5653 5657 5660 5663
5532 5533 5535 5537 5539 5540 5542 5545 5547 5550 5551 5553 5555 5560 5561 5562 5563 5566 5568 5571 5574 5577 5580 5584 5588 5591 5594 5597 5600 5603 5606 5610 5614 5618 5622 5626 5630 5633 5637 5640 5643 5647 5650 5653
5526 5526 5528 5530 5533 5534 5534 5536 5539 5541 5543 5545 5547 5551 5551 5553 5555 5556 5558 5561 5563 5566 5570 5573 5577 5580 5583 5587 5590 5593 5596 5600 5604 5607 5612 5616 5620 5623 5626 5630 5633 5636 5639 5643
5519 5520 5522 5523 5524 5525 5527 5529 5531 5534 5535 5537 5539 5541 5543 5544 5546 5548 5549 5552 5554 5556 5560 5563 5567 5570 5574 5577 5580 5583 5586 5590 5593 5597 5601 5605 5609 5612 5616 5619 5622 5626 5629 5632
5513 5514 5515 5516 5517 5518 5519 5521 5523 5526 5527 5530 5531 5532 5534 5535 5537 5539 5541 5543 5545 5547 5551 5554 5558 5561 5564 5567 5570 5573 5576 5579 5583 5587 5590 5594 5598 5602 5605 5609 5612 5615 5619 5622
5508 5508 5509 5510 5511 5512 5513 5515 5516 5518 5520 5521 5523 5525 5526 5527 5529 5530 5532 5534 5537 5539 5542 5545 5549 5552 5554 5557 5560 5563 5566 5569 5573 5576 5580 5583 5587 5591 5594 5598 5602 5605 5609 5612
5502 5503 5504 5505 5505 5505 5507 5509 5510 5511 5512 5514 5515 5518 5518 5519 5521 5522 5524 5526 5528 5531 5533 5536 5539 5543 5545 5548 5551 5554 5557 5560 5563 5566 5570 5573 5577 5580 5584 5588 5591 5595 5598 5601
5497 5497 5498 5499 5500 5500 5504 5504 5505 5505 5506 5507 5509 5510 5511 5512 5513 5514 5516 5518 5521 5523 5525 5528 5530 5534 5537 5539 5542 5545 5547 5550 5553 5557 5560 5563 5566 5570 5574 5578 5581 5585 5588 5591
5492 5493 5493 5494 5494 5495 5498 5499 5499 5500 5500 5502 5503 5503 5504 5505 5506 5508 5509 5511 5514 5516 5518 5520 5523 5525 5528 5531 5533 5536 5539 5541 5544 5547 5550 5553 5556 5560 5564 5567 5571 5574 5578 5581
5488 5489 5490 5489 5490 5490 5493 5494 5494 5495 5495 5496 5496 5497 5498 5498 5500 5502 5503 5505 5507 5509 5511 5513 5515 5517 5520 5522 5525 5527 5530 5533 5535 5538 5541 5543 5546 5550 5554 5557 5561 5564 5567 5570
5485 5485 5486 5486 5485 5486 5488 5488 5489 5491 5491 5491 5491 5491 5491 5492 5494 5495 5496 5498 5500 5502 5504 5506 5508 5510 5512 5514 5517 5519 5521 5524 5527 5529 5532 5534 5537 5540 5544 5548 5551 5554 5557 5560
5482 5482 5482 5482 5482 5485 5484 5484 5485 5484 5484 5485 5485 5486 5486 5487 5488 5488 5489 5491 5493 5495 5496 5498 5500 5502 5504 5506 5509 5511 5513 5515 5518 5521 5523 5526 5529 5532 5535 5538 5541 5544 5547 5549
5478 5479 5478 5479 5480 5479 5478 5478 5479 5479 5479 5479 5480 5480 5481 5481 5482 5482 5483 5484 5486 5488 5489 5491 5493 5495 5497 5499 5501 5504 5506 5508 5511 5513 5515 5518 5521 5523 5526 5529 5532 5534 5537 5539
5475 5474 5474 5474 5474 5474 5474 5474 5474 5473 5474 5474 5474 5474 5475 5475 5476 5476 5477 5478 5479 5481 5482 5484 5485 5487 5489 5491 5493 5496 5498 5500 5503 5505 5507 5510 5512 5515 5517 5520 5522 5524 5527 5529
5472 5471 5470 5470 5470 5470 5470 5469 5469 5469 5468 5468 5468 5469 5469 5469 5470 5470 5471 5472 5473 5474 5475 5477 5478 5480 5481 5483 5486 5488 5490 5492 5495 5497 5499 5501 5504 5506 5508 5511 5513 5515 5518 5519
5467 5467 5466 5466 5466 5465 5465 5464 5464 5463 5463 5463 5463 5463 5463 5463 5463 5464 5465 5466 5466 5467 5468 5469 5471 5472 5474 5475 5477 5479 5482 5484 5486 5489 5491 5493 5495 5498 5500 5502 5504 5506 5508 5510